Location: Budapest
(47.4979°N, 19.0402°E)
Time: 15:41:26
(UTC+02:00)

N. Korean satellite - Pass Details

Date: 13 October 2017
Orbit: 459 x 517 km, 97.2° (Epoch: 21 October)

Event Time Altitude Azimuth Distance (km) Brightness Sun altitude
Rises 19:30:17 0° 197° (SSW) 2,549 10.4 -16.1°
Reaches altitude 10° 19:32:42 10° 214° (SSW) 1,663 9.6 -16.5°
Maximum altitude 19:35:31 22° 266° (W) 1,104 9.3 -17.0°
Drops below altitude 10° 19:38:20 10° 318° (NW) 1,650 9.9 -17.4°
Sets 19:40:43 0° 335° (NNW) 2,524 10.7 -17.8°
